Regional Weather Roundup
Issued by NWS

Home | Current Version | Previous Version | Text Only | Print | Product List | Glossary On
Versions: 1 2 3 4 5 6 7 8 9 10 11 12 13 14 15 16 17 18 19 20 21 22 23 24 25 26 27 28 29 30 31 32 33 34 35 36 37 38 39 40 41 42 43 44 45 46 47 48 49 50
000
ASUS45 KBOI 030010
RWRID
WEATHER ROUNDUP FOR IDAHO
NATIONAL WEATHER SERVICE BOISE ID
500 PM MST MON MAR 02 2015

NOTE: "FAIR" INDICATES FEW OR NO CLOUDS BELOW 12000 FEET
WITH NO SIGNIFICANT WEATHER AND/OR OBSTRUCTIONS TO VISIBILITY

IDZ012-014-030100-
SOUTHWEST IDAHO


CITY           SKY/WX    TMP DP  RH WIND       PRES   REMARKS
BOISE          SUNNY     47  21  35 NW13      29.72F
CALDWELL       SUNNY     48  21  34 NW13      29.76S
MOUNTAIN HOME  SUNNY     50  20  30 NW18      29.69F
$$

IDZ016-017-030100-
SOUTHCENTRAL IDAHO


CITY           SKY/WX    TMP DP  RH WIND       PRES   REMARKS
BURLEY         MOSUNNY   47  15  27 W6        29.61F
JEROME         MOSUNNY   48  11  22 W10       29.66F
TWIN FALLS     SUNNY     48  14  25 W12       29.66F
$$

IDZ019>023-030100-
SOUTHEAST IDAHO


CITY           SKY/WX    TMP DP  RH WIND       PRES   REMARKS
IDAHO FALLS    CLOUDY    41  20  43 SW3       29.63F
POCATELLO      PTSUNNY   41  23  48 CALM      29.63F
REXBURG        CLOUDY    40  19  43 S6        29.63S
$$

IDZ006-010-011-018-031-032-030100-
CENTRAL IDAHO MOUNTAINS


CITY           SKY/WX    TMP DP  RH WIND       PRES   REMARKS
MCCALL         CLOUDY    36  16  44 NW12      29.69S WCI  28
HAILEY         MOSUNNY   43  18  36 SW10      29.62F
STANLEY          N/A     36  12  37 N6        29.64F WCI  31
SALMON         CLOUDY    43   9  24 N7        29.65F
CHALLIS        MOSUNNY   41   8  25 SW3       29.61F
$$

IDZ002-004-006-007-026-030100-
NORTHERN IDAHO


CITY           SKY/WX    TMP DP  RH WIND       PRES   REMARKS
LEWISTON       CLOUDY    43  25  49 W9        29.89F
LOWELL           N/A     46  23  40 VRB5      29.85R
COEUR D`ALENE  PTSUNNY   37  25  60 N6        29.86R WCI  33
MULLAN PASS    SNOW      21  19  92 N3        29.71S VSB 1/2
$$



USA.gov is the U.S. government's official web portal to all federal, state and local government web resources and services.